Wind_Speed
6 6 7 7 8 8 9 9 9 10 11 11 12 12 14 15 16 16 17 17 18 18 18 18 19 20 20 21 21 20 20 21 22 22 23 23 23 23
8 8 8 8 9 9 10 11 11 12 12 13 14 15 16 17 18 18 18 19 20 19 19 19 20 21 21 21 20 20 21 22 22 23 24 24 24 25
10 10 11 11 11 11 11 12 12 13 13 14 16 17 18 19 19 20 21 21 21 21 21 21 21 21 21 21 21 21 21 21 22 23 24 24 25 25
12 12 13 13 13 13 13 14 14 15 15 15 16 17 18 19 20 21 22 22 22 22 23 23 22 22 22 22 22 22 23 23 24 24 24 25 26 26
15 15 15 15 15 15 15 15 16 17 17 17 18 19 19 20 21 22 22 22 23 23 24 24 23 23 23 23 23 23 24 24 25 25 26 26 26 27
17 17 17 18 17 16 17 17 18 18 19 20 20 21 21 22 22 23 23 23 24 25 25 24 24 23 24 24 24 24 25 25 26 26 27 27 27 27
18 18 19 20 20 19 19 19 20 21 21 22 22 22 23 24 24 24 24 25 25 26 25 25 24 24 25 25 26 26 26 26 26 26 26 26 27 27
21 21 22 23 23 22 21 22 22 22 22 23 24 24 24 25 25 25 26 26 26 25 25 26 25 25 25 26 26 27 28 28 28 28 27 27 28 28
23 23 23 23 23 23 23 23 24 24 24 25 26 26 26 25 25 26 26 26 26 26 25 25 26 26 27 27 28 28 29 29 29 28 28 28 28 29
26 26 24 24 24 24 23 23 24 25 26 26 26 26 25 25 25 26 26 26 26 26 26 26 27 28 29 30 30 30 30 30 30 29 29 29 29 30
27 27 26 26 26 26 26 26 27 27 27 28 27 27 26 26 26 27 28 27 27 27 27 27 27 29 30 30 31 31 31 30 30 29 29 29 30 30
30 29 29 29 29 29 30 29 28 28 29 29 29 29 28 28 29 29 29 29 28 28 29 29 29 30 30 31 31 31 31 30 30 29 29 29 30 30
32 32 31 31 31 32 32 31 30 31 31 31 31 31 31 31 31 31 31 31 30 30 30 30 31 31 31 31 31 32 31 30 30 30 30 30 30 30
34 34 33 34 34 33 33 32 32 33 33 33 32 32 32 32 33 33 32 32 31 31 31 31 31 32 32 32 31 31 31 30 30 30 30 31 31 30
36 36 36 35 36 35 34 34 34 34 34 34 34 34 34 34 34 35 34 33 33 32 32 32 32 33 32 31 31 31 31 31 31 31 31 31 31 31
38 37 37 37 37 36 36 36 36 35 36 35 35 36 36 35 35 36 35 34 33 33 34 34 34 33 33 32 31 31 31 31 32 32 31 31 30 30
38 37 38 38 37 37 37 36 37 36 36 37 37 36 36 36 36 37 36 35 34 33 34 35 35 34 33 33 32 32 32 32 32 32 32 31 30 30
38 38 38 38 38 38 38 38 38 38 38 38 38 37 37 37 37 37 36 35 34 34 35 35 35 34 34 33 34 34 33 33 33 33 33 32 31 31
38 38 38 38 38 38 38 39 39 39 39 38 38 38 37 37 37 37 36 36 35 35 35 35 35 35 34 33 33 35 35 34 34 33 33 32 32 32
37 37 37 38 38 38 38 38 37 37 37 37 37 36 36 36 36 36 37 37 36 36 36 35 36 35 35 34 34 34 35 35 34 33 33 33 32 31
36 35 36 37 37 37 36 36 36 35 35 35 35 36 36 36 36 36 36 36 36 36 36 36 36 35 35 34 34 33 34 34 34 32 32 32 31 30
34 34 34 34 34 34 34 34 34 34 34 34 34 35 35 36 36 36 36 36 36 36 36 35 35 35 35 35 34 34 33 34 34 33 32 32 31 30
32 32 32 32 32 32 32 33 33 34 34 34 34 35 36 36 36 36 36 35 35 35 35 35 34 35 35 36 35 35 34 34 34 33 32 31 31 31
Wind_Direction
317 316 315 308 303 298 297 295 293 294 293 293 294 294 295 296 296 295 295 295 295 295 295 293 293 292 291 287 286 284 284 284 283 283 282 282 279 279
307 307 308 306 302 298 296 293 292 293 294 295 296 295 296 296 296 296 295 294 294 294 293 294 294 293 292 287 284 283 283 283 282 282 282 282 280 279
297 297 299 299 295 293 292 291 291 292 293 295 295 297 296 296 296 296 295 294 293 292 292 292 293 292 291 288 285 284 284 284 284 283 283 282 280 280
291 292 296 296 292 287 287 290 289 291 292 293 294 297 297 297 297 298 297 296 295 296 294 291 290 291 290 288 286 286 285 285 285 284 283 282 281 281
290 289 293 293 292 284 284 289 288 288 291 294 296 297 298 297 298 299 299 297 297 296 296 293 291 291 291 290 288 286 284 284 284 283 283 283 282 282
291 290 292 292 292 288 286 287 290 290 292 294 295 297 298 297 298 299 300 298 296 295 293 292 292 291 290 289 288 286 286 285 285 285 283 282 282 282
288 288 289 290 291 288 287 286 287 289 291 293 294 295 297 296 296 297 296 297 295 293 291 289 289 290 288 288 288 287 287 286 285 285 285 283 282 281
284 284 286 287 287 286 286 285 286 289 292 293 294 295 296 296 295 295 295 295 294 290 288 288 287 288 288 287 287 287 286 286 285 285 284 284 282 281
283 284 285 284 285 286 286 287 289 291 293 295 295 295 295 294 293 293 295 296 293 290 287 286 285 286 288 287 286 287 287 285 284 284 284 283 282 281
281 282 283 285 285 286 289 289 292 293 294 295 294 294 295 293 293 293 294 295 293 291 289 287 286 286 287 288 287 286 287 285 283 283 283 282 281 281
282 281 282 283 284 285 286 288 290 292 294 295 295 294 293 292 293 293 293 293 292 290 289 288 287 288 289 290 289 288 287 286 285 282 282 281 281 281
282 281 280 282 284 285 285 286 287 288 291 292 293 293 292 292 293 293 293 293 291 290 289 289 289 290 290 289 289 289 288 288 286 284 283 282 281 281
280 280 280 282 283 284 285 286 285 286 287 290 290 291 292 290 291 293 293 293 292 291 290 289 290 290 290 288 288 288 288 287 287 285 283 282 282 281
279 279 279 280 280 282 283 284 283 284 285 287 288 288 288 289 290 291 292 291 291 291 290 290 290 290 291 289 287 287 286 286 286 286 284 283 282 282
277 278 279 280 280 280 281 281 282 283 283 285 286 286 286 287 287 288 290 291 290 290 289 289 289 290 290 289 286 285 285 284 283 284 285 284 283 282
276 276 278 280 279 280 281 281 282 283 283 283 284 284 285 286 287 287 288 289 288 289 289 289 289 288 288 287 286 284 284 283 283 283 284 283 283 282
277 278 278 279 279 280 280 281 281 282 283 283 283 283 284 285 285 285 286 287 287 288 288 288 288 287 286 286 284 283 283 283 282 282 281 281 281 282
278 278 279 278 278 278 279 280 281 281 282 283 283 283 284 284 284 285 285 284 285 286 286 286 286 286 285 285 284 283 282 282 282 281 281 281 280 280
279 279 279 278 278 278 279 279 280 280 281 282 283 282 283 283 283 284 284 284 285 285 285 284 284 285 285 284 283 282 282 282 282 281 281 280 280 280
281 281 281 279 278 278 279 279 280 280 281 281 281 281 282 283 284 285 286 285 285 285 285 284 283 284 285 284 283 283 282 282 281 281 280 280 279 278
280 281 281 279 279 279 279 279 280 281 280 279 280 281 281 283 285 286 286 285 285 286 285 284 283 283 284 284 284 284 282 282 282 280 280 280 278 276
280 281 282 282 280 279 279 279 279 280 280 280 282 283 284 285 286 286 285 285 285 285 284 283 282 283 284 284 284 284 282 281 280 279 280 278 277 276
281 283 283 283 282 282 283 282 282 282 282 281 282 283 284 284 285 286 285 284 284 284 283 283 282 283 283 283 283 282 281 280 280 279 279 278 277 276
Height
5882 5881 5880 5878 5877 5876 5876 5875 5874 5873 5872 5871 5869 5868 5867 5866 5864 5863 5861 5859 5858 5856 5854 5852 5851 5849 5847 5845 5844 5842 5841 5840 5839 5837 5836 5835 5833 5832
5880 5878 5877 5876 5875 5874 5873 5872 5871 5870 5869 5868 5866 5865 5863 5862 5860 5858 5856 5855 5853 5851 5849 5847 5846 5844 5842 5840 5838 5836 5835 5834 5833 5831 5830 5828 5827 5826
5877 5876 5874 5873 5872 5870 5869 5868 5867 5866 5864 5863 5862 5860 5859 5857 5855 5853 5851 5849 5847 5845 5843 5841 5840 5838 5836 5834 5832 5830 5829 5828 5826 5825 5823 5822 5821 5819
5873 5872 5871 5869 5867 5866 5865 5864 5863 5861 5860 5859 5857 5855 5853 5852 5850 5848 5845 5843 5841 5839 5837 5835 5833 5831 5829 5827 5826 5824 5823 5821 5820 5818 5816 5815 5813 5812
5869 5868 5866 5865 5863 5861 5860 5859 5858 5856 5855 5853 5852 5850 5848 5846 5844 5842 5839 5837 5835 5833 5831 5828 5826 5824 5823 5821 5819 5818 5816 5814 5813 5811 5810 5808 5806 5804
5865 5863 5862 5860 5858 5857 5855 5854 5853 5851 5849 5848 5846 5844 5842 5840 5838 5836 5833 5831 5828 5826 5824 5821 5820 5818 5816 5814 5812 5811 5809 5807 5806 5804 5802 5800 5799 5797
5860 5858 5857 5855 5853 5851 5849 5848 5846 5845 5843 5841 5840 5838 5836 5833 5831 5829 5826 5824 5821 5819 5817 5814 5812 5811 5809 5807 5805 5803 5801 5800 5798 5796 5794 5792 5791 5789
5854 5853 5851 5849 5847 5845 5843 5841 5840 5838 5837 5835 5833 5831 5829 5826 5824 5821 5819 5817 5814 5812 5809 5807 5805 5803 5801 5799 5797 5795 5793 5791 5789 5788 5786 5784 5783 5781
5847 5846 5844 5842 5840 5838 5836 5835 5833 5832 5830 5828 5826 5823 5821 5819 5816 5814 5812 5809 5807 5804 5802 5799 5797 5795 5793 5791 5789 5787 5785 5783 5781 5779 5777 5776 5774 5773
5839 5837 5836 5834 5833 5831 5830 5828 5826 5824 5822 5820 5818 5816 5813 5811 5809 5807 5804 5802 5799 5796 5794 5792 5790 5787 5785 5783 5781 5778 5776 5774 5772 5770 5769 5767 5766 5764
5831 5829 5828 5826 5825 5823 5822 5820 5819 5816 5814 5812 5810 5808 5805 5803 5801 5799 5796 5794 5791 5788 5785 5783 5781 5779 5777 5774 5772 5769 5767 5765 5763 5761 5760 5758 5756 5755
5823 5821 5820 5818 5816 5815 5813 5812 5810 5808 5806 5804 5802 5800 5797 5795 5792 5790 5787 5785 5782 5780 5777 5775 5772 5770 5768 5766 5763 5760 5758 5756 5754 5752 5750 5749 5747 5746
5813 5812 5810 5809 5807 5806 5804 5803 5801 5799 5797 5795 5793 5791 5788 5786 5783 5781 5778 5776 5773 5771 5768 5766 5763 5761 5758 5757 5754 5751 5749 5747 5745 5743 5741 5739 5738 5737
5803 5801 5800 5799 5797 5795 5794 5792 5791 5789 5787 5785 5783 5781 5779 5776 5774 5771 5768 5766 5763 5761 5759 5756 5754 5751 5749 5746 5744 5742 5740 5738 5736 5734 5732 5730 5729 5727
5792 5791 5789 5788 5787 5785 5784 5782 5780 5778 5776 5775 5773 5771 5769 5766 5764 5761 5758 5756 5753 5751 5748 5746 5744 5741 5738 5736 5734 5733 5731 5729 5727 5725 5723 5722 5720 5718
5781 5779 5778 5777 5776 5774 5773 5771 5769 5768 5766 5764 5762 5760 5758 5756 5753 5751 5748 5746 5743 5741 5738 5736 5733 5731 5729 5727 5725 5723 5721 5719 5717 5715 5714 5712 5711 5709
5769 5768 5767 5766 5764 5763 5761 5760 5758 5756 5755 5752 5750 5749 5746 5744 5742 5740 5737 5735 5733 5731 5728 5726 5723 5721 5719 5717 5715 5713 5711 5709 5707 5706 5704 5703 5702 5700
5757 5757 5755 5754 5753 5751 5750 5748 5747 5745 5743 5741 5739 5737 5735 5733 5731 5729 5726 5724 5722 5720 5717 5715 5712 5710 5708 5707 5705 5702 5701 5699 5697 5696 5694 5693 5692 5691
5745 5745 5743 5742 5741 5739 5738 5736 5735 5733 5731 5729 5727 5725 5723 5721 5719 5717 5715 5713 5711 5709 5706 5704 5701 5699 5697 5696 5694 5691 5690 5688 5687 5685 5684 5683 5682 5681
5734 5732 5731 5730 5728 5726 5725 5724 5722 5720 5719 5717 5715 5713 5711 5709 5707 5705 5703 5701 5699 5697 5695 5692 5690 5688 5686 5685 5683 5681 5679 5677 5676 5674 5673 5672 5671 5670
5723 5721 5720 5717 5716 5714 5712 5711 5710 5708 5707 5705 5704 5702 5700 5698 5696 5694 5691 5689 5687 5685 5683 5681 5679 5677 5675 5673 5672 5670 5668 5666 5665 5663 5662 5661 5660 5660
5711 5710 5708 5706 5704 5702 5701 5700 5698 5697 5695 5694 5692 5690 5688 5686 5684 5682 5680 5678 5676 5674 5672 5670 5668 5666 5664 5662 5661 5659 5657 5655 5654 5652 5651 5651 5650 5650
5701 5699 5697 5695 5693 5692 5690 5689 5687 5686 5684 5683 5681 5679 5676 5674 5672 5670 5667 5666 5664 5662 5661 5659 5657 5655 5653 5651 5650 5648 5647 5645 5643 5642 5641 5640 5640 5639